Time,TemperatureF,DewpointF,PressureIn,WindDirection,WindDirectionDegrees,WindSpeedMPH,WindSpeedGustMPH,Humidity,HourlyPrecipIn,Conditions,Clouds,dailyrainin,SolarRadiationWatts/m^2,SoftwareType,DateUTC
2013-05-16 00:02:00,71.0,49.0,-100.00,SW,234,4.0,13.0,46,0.00,,,0.00,0.000000,,2013-05-16 04:02:00,
2013-05-16 00:33:00,70.0,52.0,-100.00,WSW,241,5.0,11.0,53,0.00,,,0.00,0.000000,,2013-05-16 04:33:00,
2013-05-16 00:42:00,70.0,52.0,-100.00,WSW,241,5.0,11.0,53,0.00,,,0.00,0.000000,,2013-05-16 04:42:00,
2013-05-16 00:53:00,70.0,52.0,-100.00,WSW,241,5.0,11.0,53,0.00,,,0.00,0.000000,,2013-05-16 04:53:00,
2013-05-16 01:03:00,70.0,52.0,-100.00,WSW,241,5.0,11.0,53,0.00,,,0.00,0.000000,,2013-05-16 05:03:00,
2013-05-16 01:32:00,70.0,50.0,-100.00,WSW,240,8.0,14.0,50,0.00,,,0.00,0.000000,,2013-05-16 05:32:00,
2013-05-16 01:42:00,70.0,50.0,-100.00,WSW,240,8.0,14.0,50,0.00,,,0.00,0.000000,,2013-05-16 05:42:00,
2013-05-16 01:52:00,70.0,50.0,-100.00,WSW,240,8.0,14.0,50,0.00,,,0.00,0.000000,,2013-05-16 05:52:00,
2013-05-16 02:02:00,70.0,50.0,-100.00,WSW,240,8.0,14.0,50,0.00,,,0.00,0.000000,,2013-05-16 06:02:00,
2013-05-16 02:33:00,70.0,50.0,-100.00,WSW,242,6.0,15.0,50,0.00,,,0.00,0.000000,,2013-05-16 06:33:00,
2013-05-16 03:34:00,68.0,50.0,-100.00,WSW,251,3.0,11.0,53,-99.99,,,-99.99,0.000000,,2013-05-16 07:34:00,
2013-05-16 04:35:00,67.0,51.0,-100.00,SSW,206,3.0,11.0,56,-99.99,,,0.00,0.000000,,2013-05-16 08:35:00,
2013-05-16 05:35:00,65.0,52.0,-100.00,WSW,248,3.0,7.0,62,-99.99,,,0.00,0.000000,,2013-05-16 09:35:00,
2013-05-16 06:05:00,61.0,53.0,-100.00,NW,323,1.0,7.0,76,-99.99,,,0.00,0.000000,,2013-05-16 10:05:00,
2013-05-16 06:36:00,61.0,53.0,-100.00,NW,323,1.0,7.0,76,-99.99,,,0.00,0.000000,,2013-05-16 10:36:00,
2013-05-16 06:45:00,61.0,53.0,-100.00,NW,323,1.0,7.0,76,-99.99,,,0.00,0.000000,,2013-05-16 10:45:00,
2013-05-16 06:56:00,61.0,53.0,-100.00,NW,323,1.0,7.0,76,-99.99,,,0.00,0.000000,,2013-05-16 10:56:00,
2013-05-16 07:05:00,58.0,54.0,-100.00,North,11,2.0,3.0,85,0.00,,,0.00,5.000000,,2013-05-16 11:05:00,
2013-05-16 07:35:00,58.0,54.0,-100.00,North,11,2.0,3.0,85,0.00,,,0.00,5.000000,,2013-05-16 11:35:00,
2013-05-16 07:46:00,58.0,54.0,-100.00,North,11,2.0,3.0,85,0.00,,,0.00,5.000000,,2013-05-16 11:46:00,
2013-05-16 07:57:00,58.0,54.0,-100.00,North,11,2.0,3.0,85,0.00,,,0.00,5.000000,,2013-05-16 11:57:00,
2013-05-16 08:35:00,60.0,56.0,-100.00,North,357,1.0,2.0,87,0.00,,,0.00,52.000000,,2013-05-16 12:35:00,
2013-05-16 08:45:00,60.0,56.0,-100.00,North,357,1.0,2.0,87,0.00,,,0.00,52.000000,,2013-05-16 12:45:00,
2013-05-16 08:53:00,60.0,56.0,-100.00,North,357,1.0,2.0,87,0.00,,,0.00,52.000000,,2013-05-16 12:53:00,
2013-05-16 09:04:00,60.0,56.0,-100.00,North,357,1.0,2.0,87,0.00,,,0.00,52.000000,,2013-05-16 13:04:00,
2013-05-16 09:35:00,67.0,60.0,-100.00,NE,35,1.0,3.0,77,0.00,,,-99.99,180.000000,,2013-05-16 13:35:00,
2013-05-16 10:05:00,69.0,59.0,-100.00,SSW,193,2.0,5.0,70,0.00,,,0.00,215.000000,,2013-05-16 14:05:00,
2013-05-16 10:37:00,69.0,59.0,-100.00,SSW,193,2.0,5.0,70,0.00,,,0.00,215.000000,,2013-05-16 14:37:00,
2013-05-16 10:47:00,69.0,59.0,-100.00,SSW,193,2.0,5.0,70,0.00,,,0.00,215.000000,,2013-05-16 14:47:00,
2013-05-16 10:56:00,69.0,59.0,-100.00,SSW,193,2.0,5.0,70,0.00,,,0.00,215.000000,,2013-05-16 14:56:00,
2013-05-16 11:05:00,70.0,58.0,-100.00,SSE,151,2.0,3.0,66,0.00,,,0.00,245.000000,,2013-05-16 15:05:00,
2013-05-16 11:40:00,70.0,58.0,-100.00,SSE,151,2.0,3.0,66,0.00,,,0.00,245.000000,,2013-05-16 15:40:00,
2013-05-16 11:50:00,70.0,58.0,-100.00,SSE,151,2.0,3.0,66,0.00,,,0.00,245.000000,,2013-05-16 15:50:00,
2013-05-16 12:01:00,70.0,58.0,-100.00,SSE,151,2.0,3.0,66,0.00,,,0.00,245.000000,,2013-05-16 16:01:00,
2013-05-16 12:05:00,73.0,57.0,-100.00,South,183,6.0,10.0,57,0.00,,,0.00,521.000000,,2013-05-16 16:05:00,
2013-05-16 12:40:00,73.0,-99.9,-100.00,South,183,6.0,10.0,57,0.00,,,0.00,521.000000,,2013-05-16 16:40:00,
2013-05-16 12:51:00,73.0,57.0,-100.00,South,183,6.0,10.0,57,0.00,,,0.00,521.000000,,2013-05-16 16:51:00,
2013-05-16 13:01:00,73.0,57.0,-100.00,South,183,6.0,10.0,57,0.00,,,0.00,521.000000,,2013-05-16 17:01:00,
2013-05-16 13:05:00,77.0,58.0,-100.00,WSW,246,6.0,11.0,52,0.00,,,-99.99,1034.000000,,2013-05-16 17:05:00,
2013-05-16 13:40:00,77.0,58.0,-100.00,WSW,246,6.0,11.0,52,0.00,,,-99.99,1034.000000,,2013-05-16 17:40:00,
2013-05-16 13:50:00,-999.0,-99.9,-100.00,WSW,246,6.0,11.0,52,0.00,,,-99.99,1034.000000,,2013-05-16 17:50:00,
2013-05-16 14:00:00,-999.0,-99.9,-100.00,WSW,246,6.0,11.0,52,0.00,,,-99.99,1034.000000,,2013-05-16 18:00:00,
2013-05-16 14:05:00,77.0,-99.9,-100.00,WSW,248,5.0,15.0,52,0.00,,,0.00,1070.000000,,2013-05-16 18:05:00,
2013-05-16 14:41:00,-999.0,-99.9,-100.00,WSW,248,5.0,15.0,52,0.00,,,0.00,1070.000000,,2013-05-16 18:41:00,
2013-05-16 14:50:00,-999.0,-99.9,-100.00,WSW,248,5.0,15.0,52,0.00,,,0.00,1070.000000,,2013-05-16 18:50:00,
2013-05-16 15:01:00,-999.0,-99.9,-100.00,WSW,248,5.0,15.0,52,0.00,,,0.00,1070.000000,,2013-05-16 19:01:00,
2013-05-16 15:05:00,-999.0,-99.9,-100.00,SW,215,6.0,14.0,47,0.00,,,0.00,855.000000,,2013-05-16 19:05:00,
2013-05-16 15:40:00,79.0,-99.9,-100.00,SW,215,6.0,14.0,47,0.00,,,0.00,855.000000,,2013-05-16 19:40:00,
2013-05-16 15:51:00,-999.0,-99.9,-100.00,SW,215,6.0,14.0,47,0.00,,,0.00,855.000000,,2013-05-16 19:51:00,
2013-05-16 16:01:00,-999.0,-99.9,-100.00,SW,215,6.0,14.0,47,0.00,,,0.00,855.000000,,2013-05-16 20:01:00,
2013-05-16 16:05:00,-999.0,-99.9,-100.00,WSW,251,6.0,13.0,45,0.00,,,0.00,918.000000,,2013-05-16 20:05:00,
2013-05-16 16:41:00,-999.0,-99.9,-100.00,WSW,251,6.0,13.0,45,0.00,,,0.00,918.000000,,2013-05-16 20:41:00,
2013-05-16 16:51:00,79.0,56.0,-100.00,WSW,251,6.0,13.0,45,0.00,,,0.00,918.000000,,2013-05-16 20:51:00,
2013-05-16 17:00:00,79.0,-99.9,-100.00,WSW,251,6.0,13.0,45,0.00,,,0.00,918.000000,,2013-05-16 21:00:00,
2013-05-16 17:05:00,78.0,57.0,-100.00,SW,217,5.0,15.0,49,0.00,,,0.00,705.000000,,2013-05-16 21:05:00,
2013-05-16 18:01:00,-999.0,-99.9,-100.00,SW,217,5.0,15.0,49,0.00,,,0.00,705.000000,,2013-05-16 22:01:00,
2013-05-16 18:05:00,76.0,58.0,-100.00,SSW,194,6.0,11.0,53,0.00,,,0.00,363.000000,,2013-05-16 22:05:00,
2013-05-16 18:40:00,76.0,58.0,-100.00,SSW,194,6.0,11.0,53,0.00,,,0.00,363.000000,,2013-05-16 22:40:00,
2013-05-16 18:51:00,76.0,58.0,-100.00,SSW,194,6.0,11.0,53,0.00,,,0.00,363.000000,,2013-05-16 22:51:00,
2013-05-16 19:01:00,76.0,58.0,-100.00,SSW,194,6.0,11.0,53,0.00,,,0.00,363.000000,,2013-05-16 23:01:00,
2013-05-16 19:35:00,77.0,57.0,-100.00,SSW,197,6.0,11.0,51,0.00,,,0.00,339.000000,,2013-05-16 23:35:00,
2013-05-16 19:45:00,77.0,57.0,-100.00,SSW,197,6.0,11.0,51,0.00,,,0.00,339.000000,,2013-05-16 23:45:00,
2013-05-16 19:54:00,77.0,57.0,-100.00,SSW,197,6.0,11.0,51,0.00,,,0.00,339.000000,,2013-05-16 23:54:00,
2013-05-16 20:03:00,77.0,57.0,-100.00,SSW,197,6.0,11.0,51,0.00,,,0.00,339.000000,,2013-05-17 00:03:00,
2013-05-16 20:33:00,74.0,57.0,-100.00,SSW,207,4.0,10.0,56,0.00,,,-99.99,135.000000,,2013-05-17 00:33:00,
2013-05-16 20:44:00,74.0,57.0,-100.00,SSW,207,4.0,10.0,56,0.00,,,-99.99,135.000000,,2013-05-17 00:44:00,
2013-05-16 20:53:00,74.0,57.0,-100.00,SSW,207,4.0,10.0,56,0.00,,,-99.99,135.000000,,2013-05-17 00:53:00,
2013-05-16 21:03:00,74.0,57.0,-100.00,SSW,207,4.0,10.0,56,0.00,,,-99.99,135.000000,,2013-05-17 01:03:00,
2013-05-16 21:32:00,71.0,57.0,-100.00,SSW,212,3.0,7.0,62,0.00,,,0.00,14.000000,,2013-05-17 01:32:00,
2013-05-16 21:44:00,71.0,57.0,-100.00,SSW,212,3.0,7.0,62,0.00,,,0.00,14.000000,,2013-05-17 01:44:00,
2013-05-16 21:53:00,71.0,57.0,-100.00,SSW,212,3.0,7.0,62,0.00,,,0.00,14.000000,,2013-05-17 01:53:00,
2013-05-16 22:02:00,71.0,57.0,-100.00,SSW,212,3.0,7.0,62,0.00,,,0.00,14.000000,,2013-05-17 02:02:00,
2013-05-16 22:33:00,64.0,58.0,-100.00,WNW,293,1.0,6.0,81,0.00,,,0.00,0.000000,,2013-05-17 02:33:00,
2013-05-16 22:42:00,64.0,58.0,-100.00,WNW,293,1.0,6.0,81,0.00,,,0.00,0.000000,,2013-05-17 02:42:00,
2013-05-16 22:53:00,64.0,58.0,-100.00,WNW,293,1.0,6.0,81,0.00,,,0.00,0.000000,,2013-05-17 02:53:00,
2013-05-16 23:02:00,64.0,58.0,-100.00,WNW,293,1.0,6.0,81,0.00,,,0.00,0.000000,,2013-05-17 03:02:00,
2013-05-16 23:34:00,61.0,57.0,-100.00,North,350,0.0,2.0,88,0.00,,,0.00,0.000000,,2013-05-17 03:34:00,
2013-05-16 23:43:00,61.0,57.0,-100.00,North,350,0.0,2.0,88,0.00,,,0.00,0.000000,,2013-05-17 03:43:00,
2013-05-16 23:53:00,61.0,57.0,-100.00,North,350,0.0,2.0,88,0.00,,,0.00,0.000000,,2013-05-17 03:53:00,